Time,TemperatureF,DewpointF,PressureIn,WindDirection,WindDirectionDegrees,WindSpeedMPH,WindSpeedGustMPH,Humidity,HourlyPrecipIn,Conditions,Clouds,dailyrainin,SoftwareType,DateUTC
2013-02-05 00:00:00,42.2,38.3,29.94,WSW,257,2.3,2.3,86,0.00,RA,,0.00,WeatherDisplay:10.37,2013-02-05 05:00:00,
2013-02-05 00:01:00,42.2,38.3,29.94,WSW,257,2.3,2.3,86,0.00,RA,,0.00,WeatherDisplay:10.37,2013-02-05 05:01:00,
2013-02-05 00:06:00,42.2,38.6,29.94,WSW,257,5.0,5.0,87,0.00,RA,,0.00,WeatherDisplay:10.37,2013-02-05 05:06:00,
2013-02-05 00:11:00,42.2,38.6,29.94,WSW,257,5.0,5.0,87,0.00,OVC,,0.00,WeatherDisplay:10.37,2013-02-05 05:11:00,
2013-02-05 00:16:00,42.2,38.6,29.94,West,260,4.0,4.0,87,0.00,OVC,,0.00,WeatherDisplay:10.37,2013-02-05 05:16:00,
2013-02-05 00:21:00,42.2,38.6,29.94,West,268,7.0,7.0,87,0.00,OVC,,0.00,WeatherDisplay:10.37,2013-02-05 05:21:00,
2013-02-05 00:25:00,42.2,38.6,29.94,West,259,5.0,8.0,87,0.00,OVC,,0.00,WeatherDisplay:10.37,2013-02-05 05:25:00,
2013-02-05 00:30:00,42.2,38.3,29.94,West,259,6.0,6.0,86,0.00,OVC,,0.00,WeatherDisplay:10.37,2013-02-05 05:30:00,
2013-02-05 00:35:00,42.2,38.3,29.93,WSW,254,3.5,3.5,86,0.00,OVC,,0.00,WeatherDisplay:10.37,2013-02-05 05:35:00,
2013-02-05 00:40:00,42.2,38.3,29.94,WSW,254,6.9,6.9,86,0.00,OVC,,0.00,WeatherDisplay:10.37,2013-02-05 05:40:00,
2013-02-05 00:45:00,42.2,38.3,29.94,WSW,251,6.0,6.0,86,0.00,OVC,,0.00,WeatherDisplay:10.37,2013-02-05 05:45:00,
2013-02-05 00:50:00,42.2,38.3,29.93,WSW,250,3.5,3.5,86,0.00,OVC,,0.00,WeatherDisplay:10.37,2013-02-05 05:50:00,
2013-02-05 00:55:00,42.2,38.3,29.94,WSW,251,6.0,6.0,86,0.00,OVC,,0.00,WeatherDisplay:10.37,2013-02-05 05:55:00,
2013-02-05 01:00:00,42.2,38.3,29.94,WSW,249,7.0,7.0,86,0.00,OVC,,0.00,WeatherDisplay:10.37,2013-02-05 06:00:00,
2013-02-05 01:05:00,42.2,38.3,29.94,WSW,250,3.5,3.5,86,0.00,,,0.00,WeatherDisplay:10.37,2013-02-05 06:05:00,
2013-02-05 01:10:00,42.1,38.2,29.94,WSW,249,3.5,3.5,86,0.00,,,0.00,WeatherDisplay:10.37,2013-02-05 06:10:00,
2013-02-05 01:15:00,42.1,38.2,29.94,WSW,250,3.5,3.5,86,0.00,,,0.00,WeatherDisplay:10.37,2013-02-05 06:15:00,
2013-02-05 01:20:00,42.0,38.1,29.93,WSW,250,3.0,3.0,86,0.00,,,0.00,WeatherDisplay:10.37,2013-02-05 06:20:00,
2013-02-05 01:25:00,42.0,38.1,29.93,WSW,249,3.5,3.5,86,0.00,,,0.00,WeatherDisplay:10.37,2013-02-05 06:25:00,
2013-02-05 01:30:00,41.9,38.3,29.93,WSW,249,3.5,3.5,87,0.00,,,0.00,WeatherDisplay:10.37,2013-02-05 06:30:00,
2013-02-05 01:35:00,41.9,38.3,29.94,WSW,249,4.0,4.0,87,0.00,,,0.00,WeatherDisplay:10.37,2013-02-05 06:35:00,
2013-02-05 01:40:00,41.9,38.3,29.94,WSW,249,3.5,3.5,87,0.00,,,0.00,WeatherDisplay:10.37,2013-02-05 06:40:00,
2013-02-05 01:45:00,41.9,38.3,29.94,WSW,249,4.0,4.0,87,0.00,,,0.00,WeatherDisplay:10.37,2013-02-05 06:45:00,
2013-02-05 01:50:00,41.8,38.2,29.93,WSW,249,4.0,4.0,87,0.00,,,0.00,WeatherDisplay:10.37,2013-02-05 06:50:00,
2013-02-05 01:55:00,41.8,38.2,29.93,WSW,249,3.0,3.0,87,0.00,,,0.00,WeatherDisplay:10.37,2013-02-05 06:55:00,
2013-02-05 02:00:00,41.8,38.2,29.94,WSW,249,0.0,0.0,87,0.00,,,0.00,WeatherDisplay:10.37,2013-02-05 07:00:00,
2013-02-05 02:05:00,41.8,38.2,29.93,WSW,249,5.0,5.0,87,0.00,OVC,,0.00,WeatherDisplay:10.37,2013-02-05 07:05:00,
2013-02-05 02:10:00,41.8,38.2,29.94,WSW,253,8.0,8.0,87,0.00,OVC,,0.00,WeatherDisplay:10.37,2013-02-05 07:10:00,
2013-02-05 02:15:00,41.8,38.2,29.93,WSW,249,4.0,4.0,87,0.00,OVC,,0.00,WeatherDisplay:10.37,2013-02-05 07:15:00,
2013-02-05 02:20:00,41.8,38.2,29.93,WSW,247,7.0,7.0,87,0.00,OVC,,0.00,WeatherDisplay:10.37,2013-02-05 07:20:00,
2013-02-05 02:25:00,41.8,38.2,29.93,WSW,248,5.0,5.0,87,0.00,OVC,,0.00,WeatherDisplay:10.37,2013-02-05 07:25:00,
2013-02-05 02:30:00,41.8,38.2,29.94,WSW,249,8.0,8.0,87,0.00,OVC,,0.00,WeatherDisplay:10.37,2013-02-05 07:30:00,
2013-02-05 02:35:00,41.9,38.3,29.94,WSW,250,7.0,7.0,87,0.00,OVC,,0.00,WeatherDisplay:10.37,2013-02-05 07:35:00,
2013-02-05 02:40:00,41.9,38.3,29.93,WSW,251,4.0,4.0,87,0.00,OVC,,0.00,WeatherDisplay:10.37,2013-02-05 07:40:00,
2013-02-05 02:45:00,41.9,38.3,29.94,WSW,251,10.4,10.4,87,0.00,OVC,,0.00,WeatherDisplay:10.37,2013-02-05 07:45:00,
2013-02-05 02:50:00,42.0,38.4,29.93,NW,314,7.0,7.0,87,0.00,OVC,,0.00,WeatherDisplay:10.37,2013-02-05 07:50:00,
2013-02-05 02:55:00,42.0,38.4,29.93,West,270,10.4,10.4,87,0.00,OVC,,0.00,WeatherDisplay:10.37,2013-02-05 07:55:00,
2013-02-05 03:00:00,41.9,38.3,29.93,West,269,5.8,5.8,87,0.00,OVC,,0.00,WeatherDisplay:10.37,2013-02-05 08:00:00,
2013-02-05 03:05:00,41.9,38.0,29.93,West,270,7.0,7.0,86,0.00,OVC,,0.00,WeatherDisplay:10.37,2013-02-05 08:05:00,
2013-02-05 03:10:00,41.8,37.9,29.93,West,268,6.0,6.0,86,0.00,OVC,,0.00,WeatherDisplay:10.37,2013-02-05 08:10:00,
2013-02-05 03:15:00,41.8,37.9,29.93,West,267,3.5,3.5,86,0.00,OVC,,0.00,WeatherDisplay:10.37,2013-02-05 08:15:00,
2013-02-05 03:20:00,41.7,37.8,29.93,WSW,256,6.0,6.0,86,0.00,OVC,,0.00,WeatherDisplay:10.37,2013-02-05 08:20:00,
2013-02-05 03:25:00,41.7,38.1,29.93,WSW,255,4.6,4.6,87,0.00,OVC,,0.00,WeatherDisplay:10.37,2013-02-05 08:25:00,
2013-02-05 03:30:00,41.6,38.0,29.94,WSW,241,5.8,5.8,87,0.00,OVC,,0.00,WeatherDisplay:10.37,2013-02-05 08:30:00,
2013-02-05 03:35:00,41.6,38.0,29.93,WSW,242,3.5,3.5,87,0.00,OVC,,0.00,WeatherDisplay:10.37,2013-02-05 08:35:00,
2013-02-05 03:40:00,41.5,37.9,29.92,WSW,241,5.0,5.0,87,0.00,OVC,,0.00,WeatherDisplay:10.37,2013-02-05 08:40:00,
2013-02-05 03:45:00,41.5,37.9,29.92,WSW,241,5.0,5.0,87,0.00,OVC,,0.00,WeatherDisplay:10.37,2013-02-05 08:45:00,
2013-02-05 03:50:00,41.4,37.8,29.91,SW,236,9.2,9.2,87,0.00,OVC,,0.00,WeatherDisplay:10.37,2013-02-05 08:50:00,
2013-02-05 03:55:00,41.3,37.7,29.91,SW,236,3.5,3.5,87,0.00,OVC,,0.00,WeatherDisplay:10.37,2013-02-05 08:55:00,
2013-02-05 04:00:00,41.3,37.7,29.91,SW,236,6.0,6.0,87,0.00,OVC,,0.00,WeatherDisplay:10.37,2013-02-05 09:00:00,
2013-02-05 04:05:00,41.3,37.7,29.91,SW,234,9.2,9.2,87,0.00,OVC,,0.00,WeatherDisplay:10.37,2013-02-05 09:05:00,
2013-02-05 04:10:00,41.3,37.7,29.91,SW,234,3.5,3.5,87,0.00,OVC,,0.00,WeatherDisplay:10.37,2013-02-05 09:10:00,
2013-02-05 04:15:00,41.3,37.7,29.91,WSW,237,5.0,5.0,87,0.00,OVC,,0.00,WeatherDisplay:10.37,2013-02-05 09:15:00,
2013-02-05 04:20:00,41.4,37.8,29.91,WSW,237,5.8,5.8,87,0.00,OVC,,0.00,WeatherDisplay:10.37,2013-02-05 09:20:00,
2013-02-05 04:25:00,41.4,37.8,29.91,WSW,243,6.0,6.0,87,0.00,OVC,,0.00,WeatherDisplay:10.37,2013-02-05 09:25:00,
2013-02-05 04:30:00,41.4,37.8,29.91,WSW,243,6.0,6.0,87,0.00,OVC,,0.00,WeatherDisplay:10.37,2013-02-05 09:30:00,
2013-02-05 04:35:00,41.3,37.7,29.91,WSW,255,7.0,7.0,87,0.00,OVC,,0.00,WeatherDisplay:10.37,2013-02-05 09:35:00,
2013-02-05 04:40:00,41.3,37.7,29.92,West,276,5.0,5.0,87,0.00,OVC,,0.00,WeatherDisplay:10.37,2013-02-05 09:40:00,
2013-02-05 04:45:00,41.3,37.7,29.92,West,272,6.9,6.9,87,0.00,OVC,,0.00,WeatherDisplay:10.37,2013-02-05 09:45:00,
2013-02-05 04:50:00,41.3,37.7,29.92,WSW,255,11.5,11.5,87,0.00,OVC,,0.00,WeatherDisplay:10.37,2013-02-05 09:50:00,
2013-02-05 04:55:00,41.3,37.7,29.92,WSW,256,3.5,3.5,87,0.00,OVC,,0.00,WeatherDisplay:10.37,2013-02-05 09:55:00,
2013-02-05 05:00:00,41.2,37.6,29.92,WSW,256,3.5,3.5,87,0.00,OVC,,0.00,WeatherDisplay:10.37,2013-02-05 10:00:00,
2013-02-05 05:05:00,41.1,37.5,29.92,WSW,257,4.0,4.0,87,0.00,OVC,,0.00,WeatherDisplay:10.37,2013-02-05 10:05:00,
2013-02-05 05:10:00,41.1,37.5,29.92,WSW,257,3.5,3.5,87,0.00,OVC,,0.00,WeatherDisplay:10.37,2013-02-05 10:10:00,
2013-02-05 05:15:00,41.1,37.5,29.92,WSW,256,2.3,2.3,87,0.00,OVC,,0.00,WeatherDisplay:10.37,2013-02-05 10:15:00,
2013-02-05 05:20:00,41.1,37.5,29.92,WSW,252,7.0,7.0,87,0.00,OVC,,0.00,WeatherDisplay:10.37,2013-02-05 10:20:00,
2013-02-05 05:25:00,41.1,37.5,29.92,WSW,253,3.5,3.5,87,0.00,OVC,,0.00,WeatherDisplay:10.37,2013-02-05 10:25:00,
2013-02-05 05:30:00,41.1,37.5,29.92,WSW,253,3.5,3.5,87,0.00,OVC,,0.00,WeatherDisplay:10.37,2013-02-05 10:30:00,
2013-02-05 05:35:00,41.0,37.7,29.92,WSW,253,4.0,4.0,88,0.00,OVC,,0.00,WeatherDisplay:10.37,2013-02-05 10:35:00,
2013-02-05 05:40:00,41.0,37.7,29.92,WSW,255,9.0,9.0,88,0.00,OVC,,0.00,WeatherDisplay:10.37,2013-02-05 10:40:00,
2013-02-05 05:45:00,41.0,37.4,29.92,WSW,251,8.1,8.1,87,0.00,OVC,,0.00,WeatherDisplay:10.37,2013-02-05 10:45:00,
2013-02-05 05:50:00,40.9,37.6,29.92,WSW,251,5.0,5.0,88,0.00,OVC,,0.00,WeatherDisplay:10.37,2013-02-05 10:50:00,
2013-02-05 05:55:00,40.9,37.6,29.93,WSW,251,5.0,5.0,88,0.00,OVC,,0.00,WeatherDisplay:10.37,2013-02-05 10:55:00,
2013-02-05 06:00:00,40.9,37.6,29.93,WSW,251,4.0,4.0,88,0.00,OVC,,0.00,WeatherDisplay:10.37,2013-02-05 11:00:00,
2013-02-05 06:05:00,40.9,37.6,29.93,WSW,251,5.8,5.8,88,0.00,OVC,,0.00,WeatherDisplay:10.37,2013-02-05 11:05:00,
2013-02-05 06:10:00,40.9,37.6,29.92,West,263,5.0,5.0,88,0.00,OVC,,0.00,WeatherDisplay:10.37,2013-02-05 11:10:00,
2013-02-05 06:15:00,40.9,37.6,29.92,West,276,8.1,8.1,88,0.00,OVC,,0.00,WeatherDisplay:10.37,2013-02-05 11:15:00,
2013-02-05 06:20:00,40.9,37.6,29.92,WSW,255,7.0,7.0,88,0.00,OVC,,0.00,WeatherDisplay:10.37,2013-02-05 11:20:00,
2013-02-05 06:25:00,40.9,37.6,29.92,West,271,2.3,2.3,88,0.00,OVC,,0.00,WeatherDisplay:10.37,2013-02-05 11:25:00,
2013-02-05 06:30:00,40.8,37.5,29.92,West,264,5.0,5.0,88,0.00,OVC,,0.00,WeatherDisplay:10.37,2013-02-05 11:30:00,
2013-02-05 06:35:00,40.8,37.5,29.92,West,264,2.3,2.3,88,0.00,OVC,,0.00,WeatherDisplay:10.37,2013-02-05 11:35:00,
2013-02-05 06:41:00,40.8,37.5,29.92,West,264,4.0,4.0,88,0.00,OVC,,0.00,WeatherDisplay:10.37,2013-02-05 11:41:00,
2013-02-05 06:46:00,40.7,37.4,29.92,West,263,4.0,4.0,88,0.00,OVC,,0.00,WeatherDisplay:10.37,2013-02-05 11:46:00,
2013-02-05 06:51:00,40.7,37.4,29.92,West,263,3.5,3.5,88,0.00,OVC,,0.00,WeatherDisplay:10.37,2013-02-05 11:51:00,
2013-02-05 06:56:00,40.7,37.4,29.92,West,263,3.5,3.5,88,0.00,OVC,,0.00,WeatherDisplay:10.37,2013-02-05 11:56:00,
2013-02-05 07:01:00,40.7,37.4,29.92,West,263,5.0,5.0,88,0.00,OVC,,0.00,WeatherDisplay:10.37,2013-02-05 12:01:00,
2013-02-05 07:06:00,40.7,37.4,29.93,West,263,3.5,3.5,88,0.00,OVC,,0.00,WeatherDisplay:10.37,2013-02-05 12:06:00,
2013-02-05 07:11:00,40.7,37.4,29.93,West,264,4.6,4.6,88,0.00,OVC,,0.00,WeatherDisplay:10.37,2013-02-05 12:11:00,
2013-02-05 07:16:00,40.7,37.4,29.93,West,264,6.0,6.0,88,0.00,OVC,,0.00,WeatherDisplay:10.37,2013-02-05 12:16:00,
2013-02-05 07:21:00,40.7,37.4,29.93,West,260,4.0,4.0,88,0.00,OVC,,0.00,WeatherDisplay:10.37,2013-02-05 12:21:00,
2013-02-05 07:26:00,40.6,37.3,29.93,West,262,4.0,4.0,88,0.00,OVC,,0.00,WeatherDisplay:10.37,2013-02-05 12:26:00,
2013-02-05 07:31:00,40.6,37.3,29.93,WSW,257,9.2,9.2,88,0.00,OVC,,0.00,WeatherDisplay:10.37,2013-02-05 12:31:00,
2013-02-05 07:36:00,40.5,37.2,29.94,West,261,4.6,4.6,88,0.00,OVC,,0.00,WeatherDisplay:10.37,2013-02-05 12:36:00,
2013-02-05 07:41:00,40.5,37.2,29.94,West,259,3.5,3.5,88,0.00,OVC,,0.00,WeatherDisplay:10.37,2013-02-05 12:41:00,
2013-02-05 07:46:00,40.4,37.1,29.94,West,259,3.5,3.5,88,0.00,OVC,,0.00,WeatherDisplay:10.37,2013-02-05 12:46:00,
2013-02-05 07:51:00,40.4,37.1,29.95,West,260,3.5,3.5,88,0.00,OVC,,0.00,WeatherDisplay:10.37,2013-02-05 12:51:00,
2013-02-05 07:56:00,40.3,37.0,29.95,West,272,4.0,4.0,88,0.00,OVC,,0.00,WeatherDisplay:10.37,2013-02-05 12:56:00,
2013-02-05 08:01:00,40.2,36.9,29.95,West,273,6.0,6.0,88,0.00,OVC,,0.00,WeatherDisplay:10.37,2013-02-05 13:01:00,
2013-02-05 08:06:00,40.1,36.8,29.95,West,277,4.6,4.6,88,0.00,OVC,,0.00,WeatherDisplay:10.37,2013-02-05 13:06:00,
2013-02-05 08:11:00,40.1,36.8,29.95,West,275,4.0,4.0,88,0.00,OVC,,0.00,WeatherDisplay:10.37,2013-02-05 13:11:00,
2013-02-05 08:16:00,40.1,36.8,29.95,West,275,5.0,5.0,88,0.00,OVC,,0.00,WeatherDisplay:10.37,2013-02-05 13:16:00,
2013-02-05 08:21:00,40.0,36.7,29.96,West,275,6.0,6.0,88,0.00,OVC,,0.00,WeatherDisplay:10.37,2013-02-05 13:21:00,
2013-02-05 08:26:00,40.0,37.0,29.96,West,278,4.0,4.0,89,0.00,OVC,,0.00,WeatherDisplay:10.37,2013-02-05 13:26:00,
2013-02-05 08:31:00,40.0,37.0,29.97,West,280,6.0,6.0,89,0.00,OVC,,0.00,WeatherDisplay:10.37,2013-02-05 13:31:00,
2013-02-05 08:36:00,40.0,37.0,29.97,West,280,2.3,2.3,89,0.00,OVC,,0.00,WeatherDisplay:10.37,2013-02-05 13:36:00,
2013-02-05 08:41:00,40.0,37.0,29.97,West,280,3.5,3.5,89,0.00,OVC,,0.00,WeatherDisplay:10.37,2013-02-05 13:41:00,
2013-02-05 08:46:00,40.1,37.1,29.97,West,280,3.5,3.5,89,0.00,OVC,,0.00,WeatherDisplay:10.37,2013-02-05 13:46:00,
2013-02-05 08:51:00,40.0,37.0,29.97,West,281,5.0,5.0,89,0.00,OVC,,0.00,WeatherDisplay:10.37,2013-02-05 13:51:00,
2013-02-05 08:56:00,40.0,37.0,29.97,WNW,282,6.0,6.0,89,0.00,OVC,,0.00,WeatherDisplay:10.37,2013-02-05 13:56:00,
2013-02-05 09:01:00,40.0,37.0,29.97,WNW,286,6.0,6.0,89,0.00,OVC,,0.00,WeatherDisplay:10.37,2013-02-05 14:01:00,
2013-02-05 09:06:00,39.9,36.9,29.97,WNW,295,4.0,4.0,89,0.00,OVC,,0.00,WeatherDisplay:10.37,2013-02-05 14:06:00,
2013-02-05 09:11:00,40.0,37.0,29.97,WNW,291,6.0,6.0,89,0.00,OVC,,0.00,WeatherDisplay:10.37,2013-02-05 14:11:00,
2013-02-05 09:16:00,40.0,37.0,29.97,WNW,288,6.0,6.0,89,0.00,OVC,,0.00,WeatherDisplay:10.37,2013-02-05 14:16:00,
2013-02-05 09:21:00,40.1,36.8,29.97,WNW,290,4.6,4.6,88,0.00,OVC,,0.00,WeatherDisplay:10.37,2013-02-05 14:21:00,
2013-02-05 09:26:00,40.2,36.9,29.98,WNW,291,6.0,6.0,88,0.00,OVC,,0.00,WeatherDisplay:10.37,2013-02-05 14:26:00,
2013-02-05 09:31:00,40.3,37.0,29.98,WNW,297,6.0,6.0,88,0.00,OVC,,0.00,WeatherDisplay:10.37,2013-02-05 14:31:00,
2013-02-05 09:36:00,40.5,37.2,29.98,WNW,295,4.0,4.0,88,0.00,OVC,,0.00,WeatherDisplay:10.37,2013-02-05 14:36:00,
2013-02-05 09:41:00,40.5,37.2,29.98,West,261,4.0,4.0,88,0.00,OVC,,0.00,WeatherDisplay:10.37,2013-02-05 14:41:00,
2013-02-05 09:46:00,40.7,37.4,29.98,WSW,257,4.0,4.0,88,0.00,OVC,,0.00,WeatherDisplay:10.37,2013-02-05 14:46:00,
2013-02-05 09:51:00,40.7,37.1,29.98,West,279,4.6,4.6,87,0.00,OVC,,0.00,WeatherDisplay:10.37,2013-02-05 14:51:00,
2013-02-05 09:56:00,40.7,37.1,29.99,WNW,283,5.0,5.0,87,0.00,OVC,,0.00,WeatherDisplay:10.37,2013-02-05 14:56:00,
2013-02-05 10:02:00,40.5,36.6,29.99,WNW,288,4.0,4.0,86,0.00,OVC,,0.00,WeatherDisplay:10.37,2013-02-05 15:02:00,
2013-02-05 10:07:00,40.3,36.4,29.99,WNW,294,7.0,7.0,86,0.00,OVC,,0.00,WeatherDisplay:10.37,2013-02-05 15:07:00,
2013-02-05 10:38:00,39.6,35.5,29.99,NW,324,9.0,9.0,85,0.00,OVC,,0.00,WeatherDisplay:10.37,2013-02-05 15:38:00,
2013-02-05 10:44:00,39.5,35.4,29.99,NW,318,5.8,5.8,85,0.00,OVC,,0.00,WeatherDisplay:10.37,2013-02-05 15:44:00,
2013-02-05 10:49:00,39.5,35.4,29.99,NW,313,5.8,5.8,85,0.00,OVC,,0.00,WeatherDisplay:10.37,2013-02-05 15:49:00,
2013-02-05 10:54:00,39.5,35.4,29.99,NW,314,4.0,4.0,85,0.00,OVC,,0.00,WeatherDisplay:10.37,2013-02-05 15:54:00,
2013-02-05 10:59:00,39.5,35.1,29.99,NNW,328,2.3,2.3,84,0.00,OVC,,0.00,WeatherDisplay:10.37,2013-02-05 15:59:00,
2013-02-05 11:04:00,39.7,35.3,29.99,NW,321,5.0,5.0,84,0.00,OVC,,0.00,WeatherDisplay:10.37,2013-02-05 16:04:00,
2013-02-05 11:09:00,40.1,35.7,29.99,WNW,293,5.0,5.0,84,0.00,OVC,,0.00,WeatherDisplay:10.37,2013-02-05 16:09:00,
2013-02-05 11:14:00,40.2,35.4,29.99,WNW,284,7.0,7.0,83,0.00,OVC,,0.00,WeatherDisplay:10.37,2013-02-05 16:14:00,
2013-02-05 11:19:00,40.5,35.7,29.99,WNW,295,4.0,4.0,83,0.00,OVC,,0.00,WeatherDisplay:10.37,2013-02-05 16:19:00,
2013-02-05 11:24:00,40.6,35.8,29.99,NW,304,5.0,5.0,83,0.00,OVC,,0.00,WeatherDisplay:10.37,2013-02-05 16:24:00,
2013-02-05 11:29:00,40.5,35.4,29.99,WSW,257,6.0,6.0,82,0.00,OVC,,0.00,WeatherDisplay:10.37,2013-02-05 16:29:00,
2013-02-05 11:34:00,40.9,36.1,29.99,West,260,4.6,4.6,83,0.00,OVC,,0.00,WeatherDisplay:10.37,2013-02-05 16:34:00,
2013-02-05 11:39:00,41.2,36.1,29.99,West,263,5.8,5.8,82,0.00,OVC,,0.00,WeatherDisplay:10.37,2013-02-05 16:39:00,
2013-02-05 11:44:00,41.3,36.2,29.99,West,264,5.0,5.0,82,0.00,OVC,,0.00,WeatherDisplay:10.37,2013-02-05 16:44:00,
2013-02-05 11:49:00,41.3,35.9,29.99,West,259,10.0,10.0,81,0.00,OVC,,0.00,WeatherDisplay:10.37,2013-02-05 16:49:00,
2013-02-05 11:54:00,41.5,36.1,29.99,WSW,251,10.4,10.4,81,0.00,OVC,,0.00,WeatherDisplay:10.37,2013-02-05 16:54:00,
2013-02-05 11:59:00,41.7,36.0,29.99,WSW,255,6.0,6.0,80,0.00,OVC,,0.00,WeatherDisplay:10.37,2013-02-05 16:59:00,
2013-02-05 12:04:00,42.1,36.1,29.99,WSW,248,12.0,12.0,79,0.00,BKN,,0.00,WeatherDisplay:10.37,2013-02-05 17:04:00,
2013-02-05 12:09:00,42.1,36.1,29.99,WSW,253,4.0,4.0,79,0.00,BKN,,0.00,WeatherDisplay:10.37,2013-02-05 17:09:00,
2013-02-05 12:14:00,42.3,36.3,29.99,WSW,244,5.8,5.8,79,0.00,BKN,,0.00,WeatherDisplay:10.37,2013-02-05 17:14:00,
2013-02-05 12:19:00,42.5,36.1,29.99,WSW,237,10.0,10.0,78,0.00,BKN,,0.00,WeatherDisplay:10.37,2013-02-05 17:19:00,
2013-02-05 12:24:00,42.7,36.3,29.99,West,274,9.2,9.2,78,0.00,BKN,,0.00,WeatherDisplay:10.37,2013-02-05 17:24:00,
2013-02-05 12:29:00,42.8,36.4,29.99,West,268,8.0,8.0,78,0.00,BKN,,0.00,WeatherDisplay:10.37,2013-02-05 17:29:00,
2013-02-05 12:34:00,42.8,36.4,29.98,West,264,4.0,4.0,78,0.00,BKN,,0.00,WeatherDisplay:10.37,2013-02-05 17:34:00,
2013-02-05 12:39:00,42.8,36.4,29.98,WSW,243,8.1,8.1,78,0.00,BKN,,0.00,WeatherDisplay:10.37,2013-02-05 17:39:00,
2013-02-05 12:44:00,43.2,36.5,29.98,WSW,240,10.4,10.4,77,0.00,BKN,,0.00,WeatherDisplay:10.37,2013-02-05 17:44:00,
2013-02-05 12:49:00,43.4,36.3,29.98,WSW,240,12.0,12.0,76,0.00,BKN,,0.00,WeatherDisplay:10.37,2013-02-05 17:49:00,
2013-02-05 12:54:00,44.0,36.6,29.98,West,272,7.0,7.0,75,0.00,BKN,,0.00,WeatherDisplay:10.37,2013-02-05 17:54:00,
2013-02-05 12:59:00,44.0,36.2,29.97,NNW,341,10.4,10.4,74,0.00,BKN,,0.00,WeatherDisplay:10.37,2013-02-05 17:59:00,
2013-02-05 13:04:00,44.3,37.2,29.97,WSW,247,6.0,6.0,76,0.00,BKN,,0.00,WeatherDisplay:10.37,2013-02-05 18:04:00,
2013-02-05 13:09:00,44.7,37.3,29.97,WSW,257,5.0,5.0,75,0.00,BKN,,0.00,WeatherDisplay:10.37,2013-02-05 18:09:00,
2013-02-05 13:14:00,45.0,36.5,29.96,WSW,253,9.2,9.2,72,0.00,BKN,,0.00,WeatherDisplay:10.37,2013-02-05 18:14:00,
2013-02-05 13:19:00,44.7,35.9,29.96,West,261,7.0,7.0,71,0.00,BKN,,0.00,WeatherDisplay:10.37,2013-02-05 18:19:00,
2013-02-05 13:24:00,44.7,36.2,29.96,WSW,255,8.1,8.1,72,0.00,BKN,,0.00,WeatherDisplay:10.37,2013-02-05 18:24:00,
2013-02-05 13:29:00,45.0,36.2,29.96,WSW,248,8.0,8.0,71,0.00,BKN,,0.00,WeatherDisplay:10.37,2013-02-05 18:29:00,
2013-02-05 13:34:00,45.1,35.5,29.95,WSW,248,12.0,12.0,69,0.00,BKN,,0.00,WeatherDisplay:10.37,2013-02-05 18:34:00,
2013-02-05 13:39:00,45.4,35.5,29.95,WSW,239,6.9,6.9,68,0.00,BKN,,0.00,WeatherDisplay:10.37,2013-02-05 18:39:00,
2013-02-05 13:44:00,45.7,36.1,29.94,WNW,288,5.8,5.8,69,0.00,BKN,,0.00,WeatherDisplay:10.37,2013-02-05 18:44:00,
2013-02-05 13:49:00,46.0,36.4,29.94,West,266,9.0,9.0,69,0.00,BKN,,0.00,WeatherDisplay:10.37,2013-02-05 18:49:00,
2013-02-05 13:54:00,46.2,36.2,29.94,WSW,257,10.4,10.4,68,0.00,BKN,,0.00,WeatherDisplay:10.37,2013-02-05 18:54:00,
2013-02-05 13:59:00,46.1,35.7,29.94,WSW,238,5.0,5.0,67,0.00,BKN,,0.00,WeatherDisplay:10.37,2013-02-05 18:59:00,
2013-02-05 14:04:00,45.9,35.6,29.94,SW,233,9.2,9.2,67,0.00,BKN,,0.00,WeatherDisplay:10.37,2013-02-05 19:04:00,
2013-02-05 14:09:00,45.8,35.1,29.94,WSW,257,11.5,11.5,66,0.00,BKN,,0.00,WeatherDisplay:10.37,2013-02-05 19:09:00,
2013-02-05 14:14:00,45.7,35.0,29.94,WSW,247,10.4,10.4,66,0.00,BKN,,0.00,WeatherDisplay:10.37,2013-02-05 19:14:00,
2013-02-05 14:19:00,45.9,35.2,29.94,WNW,296,10.4,10.4,66,0.00,BKN,,0.00,WeatherDisplay:10.37,2013-02-05 19:19:00,
2013-02-05 14:24:00,46.0,34.5,29.94,West,270,9.0,9.0,64,0.00,BKN,,0.00,WeatherDisplay:10.37,2013-02-05 19:24:00,
2013-02-05 14:29:00,45.9,34.0,29.93,WSW,255,7.0,7.0,63,0.00,BKN,,0.00,WeatherDisplay:10.37,2013-02-05 19:29:00,
2013-02-05 14:34:00,46.1,34.6,29.93,WSW,240,8.1,8.1,64,0.00,BKN,,0.00,WeatherDisplay:10.37,2013-02-05 19:34:00,
2013-02-05 14:39:00,46.4,35.3,29.93,SW,231,9.0,9.0,65,0.00,BKN,,0.00,WeatherDisplay:10.37,2013-02-05 19:39:00,
2013-02-05 14:44:00,47.0,34.6,29.93,WSW,253,10.4,10.4,62,0.00,BKN,,0.00,WeatherDisplay:10.37,2013-02-05 19:44:00,
2013-02-05 14:49:00,47.3,34.5,29.93,WSW,248,7.0,7.0,61,0.00,BKN,,0.00,WeatherDisplay:10.37,2013-02-05 19:49:00,
2013-02-05 14:54:00,47.2,34.0,29.93,WSW,238,13.8,13.8,60,0.00,BKN,,0.00,WeatherDisplay:10.37,2013-02-05 19:54:00,
2013-02-05 14:59:00,47.2,34.0,29.93,WSW,239,10.4,10.4,60,0.00,BKN,,0.00,WeatherDisplay:10.37,2013-02-05 19:59:00,
2013-02-05 15:04:00,47.5,34.7,29.93,WSW,242,9.2,9.2,61,0.00,BKN,,0.00,WeatherDisplay:10.37,2013-02-05 20:04:00,
2013-02-05 15:09:00,47.8,34.2,29.93,WSW,250,9.2,9.2,59,0.00,BKN,,0.00,WeatherDisplay:10.37,2013-02-05 20:09:00,
2013-02-05 15:14:00,47.9,33.8,29.92,West,272,5.8,5.8,58,0.00,BKN,,0.00,WeatherDisplay:10.37,2013-02-05 20:14:00,
2013-02-05 15:19:00,48.2,34.1,29.93,WSW,249,8.0,8.0,58,0.00,BKN,,0.00,WeatherDisplay:10.37,2013-02-05 20:19:00,
2013-02-05 15:24:00,48.0,33.5,29.93,WSW,253,11.5,11.5,57,0.00,BKN,,0.00,WeatherDisplay:10.37,2013-02-05 20:24:00,
2013-02-05 15:29:00,48.1,34.4,29.92,WSW,244,5.8,5.8,59,0.00,BKN,,0.00,WeatherDisplay:10.37,2013-02-05 20:29:00,
2013-02-05 15:34:00,48.2,34.5,29.93,WSW,243,4.6,4.6,59,0.00,BKN,,0.00,WeatherDisplay:10.37,2013-02-05 20:34:00,
2013-02-05 15:39:00,48.2,35.0,29.93,WSW,247,5.0,5.0,60,0.00,BKN,,0.00,WeatherDisplay:10.37,2013-02-05 20:39:00,
2013-02-05 15:44:00,48.2,35.0,29.93,SW,230,8.0,8.0,60,0.00,BKN,,0.00,WeatherDisplay:10.37,2013-02-05 20:44:00,
2013-02-05 15:49:00,48.2,35.0,29.93,SW,216,7.0,7.0,60,0.00,BKN,,0.00,WeatherDisplay:10.37,2013-02-05 20:49:00,
2013-02-05 15:54:00,48.3,34.6,29.93,SW,236,8.1,8.1,59,0.00,BKN,,0.00,WeatherDisplay:10.37,2013-02-05 20:54:00,
2013-02-05 15:59:00,48.4,34.7,29.93,WSW,239,5.8,5.8,59,0.00,BKN,,0.00,WeatherDisplay:10.37,2013-02-05 20:59:00,
2013-02-05 16:04:00,48.6,34.9,29.93,WSW,255,5.0,5.0,59,0.00,OVC,,0.00,WeatherDisplay:10.37,2013-02-05 21:04:00,
2013-02-05 16:10:00,48.8,34.7,29.93,West,262,6.0,6.0,58,0.00,OVC,,0.00,WeatherDisplay:10.37,2013-02-05 21:10:00,
2013-02-05 16:15:00,48.9,34.8,29.93,West,259,6.0,6.0,58,0.00,OVC,,0.00,WeatherDisplay:10.37,2013-02-05 21:15:00,
2013-02-05 16:20:00,48.9,35.2,29.93,West,264,6.0,6.0,59,0.00,OVC,,0.00,WeatherDisplay:10.37,2013-02-05 21:20:00,
2013-02-05 16:25:00,49.2,35.5,29.92,West,261,10.4,10.4,59,0.00,OVC,,0.00,WeatherDisplay:10.37,2013-02-05 21:25:00,
2013-02-05 16:30:00,49.2,35.5,29.92,WSW,250,7.0,7.0,59,0.00,OVC,,0.00,WeatherDisplay:10.37,2013-02-05 21:30:00,
2013-02-05 16:35:00,49.2,35.5,29.92,WSW,243,7.0,7.0,59,0.00,OVC,,0.00,WeatherDisplay:10.37,2013-02-05 21:35:00,
2013-02-05 16:40:00,49.4,35.2,29.92,WSW,248,6.0,6.0,58,0.00,OVC,,0.00,WeatherDisplay:10.37,2013-02-05 21:40:00,
2013-02-05 16:45:00,49.5,34.9,29.91,SW,234,3.5,3.5,57,0.00,OVC,,0.00,WeatherDisplay:10.37,2013-02-05 21:45:00,
2013-02-05 16:50:00,49.7,34.6,29.91,West,277,6.0,6.0,56,0.00,OVC,,0.00,WeatherDisplay:10.37,2013-02-05 21:50:00,
2013-02-05 16:55:00,50.0,34.9,29.91,WSW,237,7.0,7.0,56,0.00,OVC,,0.00,WeatherDisplay:10.37,2013-02-05 21:55:00,
2013-02-05 17:00:00,50.4,34.8,29.91,WSW,239,4.6,4.6,55,0.00,OVC,,0.00,WeatherDisplay:10.37,2013-02-05 22:00:00,
2013-02-05 17:05:00,50.6,35.5,29.91,SW,236,6.9,6.9,56,0.00,OVC,,0.00,WeatherDisplay:10.37,2013-02-05 22:05:00,
2013-02-05 17:10:00,50.4,35.3,29.92,West,261,7.0,7.0,56,0.00,OVC,,0.00,WeatherDisplay:10.37,2013-02-05 22:10:00,
2013-02-05 17:15:00,50.2,35.5,29.91,WSW,257,8.1,8.1,57,0.00,OVC,,0.00,WeatherDisplay:10.37,2013-02-05 22:15:00,
2013-02-05 17:20:00,50.0,35.4,29.91,WSW,240,8.1,8.1,57,0.00,OVC,,0.00,WeatherDisplay:10.37,2013-02-05 22:20:00,
2013-02-05 17:25:00,50.0,35.4,29.91,WSW,246,5.8,5.8,57,0.00,OVC,,0.00,WeatherDisplay:10.37,2013-02-05 22:25:00,
2013-02-05 17:30:00,49.7,35.5,29.91,WSW,240,7.0,7.0,58,0.00,OVC,,0.00,WeatherDisplay:10.37,2013-02-05 22:30:00,
2013-02-05 17:35:00,49.3,35.1,29.91,WSW,243,6.0,6.0,58,0.00,OVC,,0.00,WeatherDisplay:10.37,2013-02-05 22:35:00,
2013-02-05 17:40:00,48.8,35.1,29.91,WSW,237,10.4,10.4,59,0.00,OVC,,0.00,WeatherDisplay:10.37,2013-02-05 22:40:00,
2013-02-05 17:45:00,48.5,35.2,29.91,SW,232,9.2,9.2,60,0.00,OVC,,0.00,WeatherDisplay:10.37,2013-02-05 22:45:00,
2013-02-05 17:50:00,48.2,35.4,29.91,SW,233,5.0,5.0,61,0.00,OVC,,0.00,WeatherDisplay:10.37,2013-02-05 22:50:00,
2013-02-05 17:55:00,48.0,35.2,29.91,SW,233,4.0,4.0,61,0.00,OVC,,0.00,WeatherDisplay:10.37,2013-02-05 22:55:00,
2013-02-05 18:00:00,47.8,35.0,29.91,SW,233,4.0,4.0,61,0.00,OVC,,0.00,WeatherDisplay:10.37,2013-02-05 23:00:00,
2013-02-05 18:05:00,47.6,35.2,29.91,SW,233,4.0,4.0,62,0.00,OVC,,0.00,WeatherDisplay:10.37,2013-02-05 23:05:00,
2013-02-05 18:10:00,47.4,35.0,29.91,SW,233,5.0,5.0,62,0.00,OVC,,0.00,WeatherDisplay:10.37,2013-02-05 23:10:00,
2013-02-05 18:15:00,47.2,34.8,29.91,SW,232,4.6,4.6,62,0.00,OVC,,0.00,WeatherDisplay:10.37,2013-02-05 23:15:00,
2013-02-05 18:20:00,47.0,34.6,29.92,SW,232,4.6,4.6,62,0.00,OVC,,0.00,WeatherDisplay:10.37,2013-02-05 23:20:00,
2013-02-05 18:25:00,46.8,34.5,29.92,SW,232,3.5,3.5,62,0.00,OVC,,0.00,WeatherDisplay:10.37,2013-02-05 23:25:00,
2013-02-05 18:30:00,46.6,34.7,29.92,SW,232,3.5,3.5,63,0.00,OVC,,0.00,WeatherDisplay:10.37,2013-02-05 23:30:00,
2013-02-05 18:35:00,46.3,34.4,29.92,SW,232,3.5,3.5,63,0.00,OVC,,0.00,WeatherDisplay:10.37,2013-02-05 23:35:00,
2013-02-05 18:40:00,46.0,34.5,29.93,SW,232,3.0,3.0,64,0.00,OVC,,0.00,WeatherDisplay:10.37,2013-02-05 23:40:00,
2013-02-05 18:45:00,45.8,34.3,29.93,SW,232,3.5,3.5,64,0.00,OVC,,0.00,WeatherDisplay:10.37,2013-02-05 23:45:00,
2013-02-05 18:50:00,45.5,34.0,29.93,SW,232,3.5,3.5,64,0.00,OVC,,0.00,WeatherDisplay:10.37,2013-02-05 23:50:00,
2013-02-05 18:55:00,45.4,33.9,29.93,SW,232,0.0,0.0,64,0.00,OVC,,0.00,WeatherDisplay:10.37,2013-02-05 23:55:00,
2013-02-05 19:00:00,45.2,33.7,29.93,SW,232,2.3,2.3,64,0.00,OVC,,0.00,WeatherDisplay:10.37,2013-02-06 00:00:00,
2013-02-05 19:05:00,45.1,34.0,29.94,SW,232,2.3,2.3,65,0.00,BKN,,0.00,WeatherDisplay:10.37,2013-02-06 00:05:00,
2013-02-05 19:10:00,45.1,34.0,29.94,SW,232,3.0,3.0,65,0.00,BKN,,0.00,WeatherDisplay:10.37,2013-02-06 00:10:00,
2013-02-05 19:15:00,45.1,34.0,29.94,SW,232,3.5,3.5,65,0.00,BKN,,0.00,WeatherDisplay:10.37,2013-02-06 00:15:00,
2013-02-05 19:20:00,45.0,33.9,29.94,SW,232,2.3,0.0,65,0.00,BKN,,0.00,WeatherDisplay:10.37,2013-02-06 00:20:00,
2013-02-05 19:25:00,45.0,34.3,29.94,SW,232,1.1,0.0,66,0.00,BKN,,0.00,WeatherDisplay:10.37,2013-02-06 00:25:00,
2013-02-05 19:30:00,45.0,34.3,29.95,SW,232,2.3,2.3,66,0.00,BKN,,0.00,WeatherDisplay:10.37,2013-02-06 00:30:00,
2013-02-05 19:35:00,45.1,34.8,29.95,SW,232,3.5,3.5,67,0.00,BKN,,0.00,WeatherDisplay:10.37,2013-02-06 00:35:00,
2013-02-05 19:40:00,45.3,35.0,29.95,SW,232,4.0,4.0,67,0.00,BKN,,0.00,WeatherDisplay:10.37,2013-02-06 00:40:00,
2013-02-05 19:45:00,45.3,35.0,29.96,SW,232,4.0,4.0,67,0.00,BKN,,0.00,WeatherDisplay:10.37,2013-02-06 00:45:00,
2013-02-05 19:50:00,45.4,35.1,29.96,SW,232,5.0,5.0,67,0.00,BKN,,0.00,WeatherDisplay:10.37,2013-02-06 00:50:00,
2013-02-05 19:55:00,45.3,35.0,29.96,SW,233,3.5,3.5,67,0.00,BKN,,0.00,WeatherDisplay:10.37,2013-02-06 00:55:00,
2013-02-05 20:00:00,45.5,35.2,29.96,SW,233,5.0,5.0,67,0.00,BKN,,0.00,WeatherDisplay:10.37,2013-02-06 01:00:00,
2013-02-05 20:05:00,45.5,35.2,29.96,SW,233,3.0,3.0,67,0.00,OVC,,0.00,WeatherDisplay:10.37,2013-02-06 01:05:00,
2013-02-05 20:10:00,45.5,35.5,29.96,SW,233,2.3,2.3,68,0.00,OVC,,0.00,WeatherDisplay:10.37,2013-02-06 01:10:00,
2013-02-05 20:15:00,45.5,35.2,29.97,SW,236,6.0,6.0,67,0.00,OVC,,0.00,WeatherDisplay:10.37,2013-02-06 01:15:00,
2013-02-05 20:20:00,45.6,34.9,29.97,WSW,245,5.0,5.0,66,0.00,OVC,,0.00,WeatherDisplay:10.37,2013-02-06 01:20:00,
2013-02-05 20:25:00,45.6,34.9,29.97,WSW,247,3.5,3.5,66,0.00,OVC,,0.00,WeatherDisplay:10.37,2013-02-06 01:25:00,
2013-02-05 20:30:00,45.5,34.4,29.97,WSW,247,2.3,2.3,65,0.00,OVC,,0.00,WeatherDisplay:10.37,2013-02-06 01:30:00,
2013-02-05 20:35:00,45.3,34.2,29.98,WSW,247,2.3,2.3,65,0.00,OVC,,0.00,WeatherDisplay:10.37,2013-02-06 01:35:00,
2013-02-05 20:40:00,45.1,34.0,29.98,WSW,248,3.5,3.5,65,0.00,OVC,,0.00,WeatherDisplay:10.37,2013-02-06 01:40:00,
2013-02-05 20:45:00,45.0,33.5,29.98,WSW,248,2.3,2.3,64,0.00,OVC,,0.00,WeatherDisplay:10.37,2013-02-06 01:45:00,
2013-02-05 20:50:00,44.8,33.7,29.98,WSW,248,3.5,3.5,65,0.00,OVC,,0.00,WeatherDisplay:10.37,2013-02-06 01:50:00,
2013-02-05 20:55:00,44.6,33.6,29.98,WSW,248,3.5,3.5,65,0.00,OVC,,0.00,WeatherDisplay:10.37,2013-02-06 01:55:00,
2013-02-05 21:00:00,44.4,33.4,29.99,WSW,248,2.3,2.3,65,0.00,OVC,,0.00,WeatherDisplay:10.37,2013-02-06 02:00:00,
2013-02-05 21:05:00,44.2,32.8,29.99,WSW,248,3.5,3.5,64,0.00,OVC,,0.00,WeatherDisplay:10.37,2013-02-06 02:05:00,
2013-02-05 21:10:00,44.2,32.8,29.99,WSW,251,4.0,4.0,64,0.00,OVC,,0.00,WeatherDisplay:10.37,2013-02-06 02:10:00,
2013-02-05 21:15:00,44.2,32.8,30.00,West,270,3.5,3.5,64,0.00,OVC,,0.00,WeatherDisplay:10.37,2013-02-06 02:15:00,
2013-02-05 21:20:00,44.3,32.9,30.00,WNW,284,5.0,5.0,64,0.00,OVC,,0.00,WeatherDisplay:10.37,2013-02-06 02:20:00,
2013-02-05 21:25:00,44.4,32.6,30.00,WNW,288,6.0,6.0,63,0.00,OVC,,0.00,WeatherDisplay:10.37,2013-02-06 02:25:00,
2013-02-05 21:30:00,44.4,32.6,30.00,NW,322,5.8,5.8,63,0.00,OVC,,0.00,WeatherDisplay:10.37,2013-02-06 02:30:00,
2013-02-05 21:35:00,44.5,32.7,30.01,NW,306,7.0,7.0,63,0.00,OVC,,0.00,WeatherDisplay:10.37,2013-02-06 02:35:00,
2013-02-05 21:40:00,44.5,32.7,30.01,NW,304,4.0,4.0,63,0.00,OVC,,0.00,WeatherDisplay:10.37,2013-02-06 02:40:00,
2013-02-05 21:45:00,44.3,32.5,30.01,WNW,303,6.0,6.0,63,0.00,OVC,,0.00,WeatherDisplay:10.37,2013-02-06 02:45:00,
2013-02-05 21:50:00,44.2,32.8,30.01,West,278,7.0,7.0,64,0.00,OVC,,0.00,WeatherDisplay:10.37,2013-02-06 02:50:00,
2013-02-05 21:55:00,44.1,32.7,30.02,WNW,303,5.8,5.8,64,0.00,OVC,,0.00,WeatherDisplay:10.37,2013-02-06 02:55:00,
2013-02-05 22:00:00,44.2,32.8,30.02,NNW,333,9.2,9.2,64,0.00,OVC,,0.00,WeatherDisplay:10.37,2013-02-06 03:00:00,
2013-02-05 22:05:00,44.2,32.8,30.02,NW,306,8.0,8.0,64,0.00,FEW,,0.00,WeatherDisplay:10.37,2013-02-06 03:05:00,
2013-02-05 22:10:00,44.1,32.7,30.03,North,7,8.1,8.1,64,0.00,FEW,,0.00,WeatherDisplay:10.37,2013-02-06 03:10:00,
2013-02-05 22:15:00,44.0,33.0,30.03,NW,311,7.0,7.0,65,0.00,FEW,,0.00,WeatherDisplay:10.37,2013-02-06 03:15:00,
2013-02-05 22:20:00,43.8,32.8,30.03,WNW,286,6.0,6.0,65,0.00,FEW,,0.00,WeatherDisplay:10.37,2013-02-06 03:20:00,
2013-02-05 22:25:00,43.6,33.0,30.03,NW,310,10.0,10.0,66,0.00,FEW,,0.00,WeatherDisplay:10.37,2013-02-06 03:25:00,
2013-02-05 22:30:00,43.4,32.8,30.04,NNW,341,6.9,6.9,66,0.00,FEW,,0.00,WeatherDisplay:10.37,2013-02-06 03:30:00,
2013-02-05 22:35:00,43.1,32.5,30.04,NNW,347,6.0,6.0,66,0.00,FEW,,0.00,WeatherDisplay:10.37,2013-02-06 03:35:00,
2013-02-05 22:40:00,42.8,32.6,30.04,North,354,5.0,5.0,67,0.00,FEW,,0.00,WeatherDisplay:10.37,2013-02-06 03:40:00,
2013-02-05 22:45:00,42.5,32.3,30.05,NNW,344,6.9,6.9,67,0.00,FEW,,0.00,WeatherDisplay:10.37,2013-02-06 03:45:00,
2013-02-05 22:50:00,42.1,32.3,30.05,NNW,343,5.0,5.0,68,0.00,FEW,,0.00,WeatherDisplay:10.37,2013-02-06 03:50:00,
2013-02-05 22:55:00,41.6,32.2,30.05,North,7,6.9,6.9,69,0.00,FEW,,0.00,WeatherDisplay:10.37,2013-02-06 03:55:00,
2013-02-05 23:00:00,41.5,32.1,30.05,North,7,13.8,13.8,69,0.00,FEW,,0.00,WeatherDisplay:10.37,2013-02-06 04:00:00,
2013-02-05 23:06:00,41.3,31.9,30.06,WNW,302,8.1,8.1,69,0.00,CLR,,0.00,WeatherDisplay:10.37,2013-02-06 04:06:00,
2013-02-05 23:11:00,40.9,31.9,30.06,North,349,5.0,5.0,70,0.00,CLR,,0.00,WeatherDisplay:10.37,2013-02-06 04:11:00,
2013-02-05 23:16:00,40.7,31.7,30.06,North,2,5.0,5.0,70,0.00,CLR,,0.00,WeatherDisplay:10.37,2013-02-06 04:16:00,
2013-02-05 23:21:00,40.4,31.7,30.06,North,357,3.5,3.5,71,0.00,CLR,,0.00,WeatherDisplay:10.37,2013-02-06 04:21:00,
2013-02-05 23:26:00,40.0,31.7,30.06,North,357,3.5,3.5,72,0.00,CLR,,0.00,WeatherDisplay:10.37,2013-02-06 04:26:00,
2013-02-05 23:31:00,39.8,31.5,30.07,North,357,5.0,5.0,72,0.00,CLR,,0.00,WeatherDisplay:10.37,2013-02-06 04:31:00,
2013-02-05 23:36:00,39.5,31.6,30.07,North,357,3.5,3.5,73,0.00,CLR,,0.00,WeatherDisplay:10.37,2013-02-06 04:36:00,
2013-02-05 23:41:00,39.2,31.3,30.07,North,357,3.5,3.5,73,0.00,CLR,,0.00,WeatherDisplay:10.37,2013-02-06 04:41:00,
2013-02-05 23:46:00,39.1,31.2,30.07,North,357,2.0,2.0,73,0.00,CLR,,0.00,WeatherDisplay:10.37,2013-02-06 04:46:00,
2013-02-05 23:51:00,38.9,31.3,30.07,North,357,4.0,4.0,74,0.00,CLR,,0.00,WeatherDisplay:10.37,2013-02-06 04:51:00,
2013-02-05 23:56:00,38.8,31.2,30.07,North,357,3.5,3.5,74,0.00,CLR,,0.00,WeatherDisplay:10.37,2013-02-06 04:56:00,